Time,TemperatureF,DewpointF,PressureIn,WindDirection,WindDirectionDegrees,WindSpeedMPH,WindSpeedGustMPH,Humidity,HourlyPrecipIn,Conditions,Clouds,dailyrainin,SolarRadiationWatts/m^2,SoftwareType,DateUTC
2013-05-05 00:04:00,53.2,48.8,30.06,NNE,22,0.0,0.0,85,0.00,CLR,,0.00,0.0,WeatherDisplay:10.37,2013-05-04 22:04:00,
2013-05-05 00:09:00,53.2,48.8,30.06,NNE,22,0.0,0.0,85,0.00,CLR,,0.00,0.0,WeatherDisplay:10.37,2013-05-04 22:09:00,
2013-05-05 00:14:00,53.1,48.7,30.06,NNE,22,0.0,0.0,85,0.00,CLR,,0.00,0.0,WeatherDisplay:10.37,2013-05-04 22:14:00,
2013-05-05 00:19:00,53.1,48.7,30.06,ENE,68,0.0,0.0,85,0.00,CLR,,0.00,0.0,WeatherDisplay:10.37,2013-05-04 22:19:00,
2013-05-05 00:24:00,52.9,48.8,30.06,NNW,338,0.0,0.0,86,0.00,CLR,,0.00,0.0,WeatherDisplay:10.37,2013-05-04 22:24:00,
2013-05-05 00:29:00,52.9,48.8,30.06,NNW,338,0.0,0.0,86,0.00,CLR,,0.00,0.0,WeatherDisplay:10.37,2013-05-04 22:29:00,
2013-05-05 00:34:00,52.9,48.8,30.06,NW,315,0.0,0.0,86,0.00,CLR,,0.00,0.0,WeatherDisplay:10.37,2013-05-04 22:34:00,
2013-05-05 00:39:00,52.7,48.6,30.06,NW,315,0.0,0.0,86,0.00,CLR,,0.00,0.0,WeatherDisplay:10.37,2013-05-04 22:39:00,
2013-05-05 00:44:00,52.7,48.6,30.06,NW,315,0.0,0.0,86,0.00,CLR,,0.00,0.0,WeatherDisplay:10.37,2013-05-04 22:44:00,
2013-05-05 00:49:00,52.5,48.5,30.06,NW,315,0.0,0.0,86,0.00,CLR,,0.00,0.0,WeatherDisplay:10.37,2013-05-04 22:49:00,
2013-05-05 00:54:00,52.5,48.5,30.06,NW,315,0.0,0.0,86,0.00,CLR,,0.00,0.0,WeatherDisplay:10.37,2013-05-04 22:54:00,
2013-05-05 00:59:00,52.3,48.3,30.06,NE,45,0.0,0.0,86,0.00,CLR,,0.00,0.0,WeatherDisplay:10.37,2013-05-04 22:59:00,
2013-05-05 01:04:00,52.3,48.3,30.06,NNW,338,0.0,0.0,86,0.00,CLR,,0.00,0.0,WeatherDisplay:10.37,2013-05-04 23:04:00,
2013-05-05 01:09:00,52.3,48.6,30.06,NNW,338,0.0,0.0,87,0.00,CLR,,0.00,0.0,WeatherDisplay:10.37,2013-05-04 23:09:00,
2013-05-05 01:14:00,52.2,48.4,30.06,NNW,338,0.0,0.0,87,0.00,CLR,,0.00,0.0,WeatherDisplay:10.37,2013-05-04 23:14:00,
2013-05-05 01:19:00,52.2,48.4,30.06,NNW,338,0.0,0.0,87,0.00,CLR,,0.00,0.0,WeatherDisplay:10.37,2013-05-04 23:19:00,
2013-05-05 01:24:00,52.2,48.4,30.06,NNW,338,0.0,0.0,87,0.00,CLR,,0.00,0.0,WeatherDisplay:10.37,2013-05-04 23:24:00,
2013-05-05 01:29:00,52.0,48.5,30.06,NNW,338,0.0,0.0,88,0.00,CLR,,0.00,0.0,WeatherDisplay:10.37,2013-05-04 23:29:00,
2013-05-05 01:34:00,52.0,48.5,30.06,NNW,338,0.0,0.0,88,0.00,CLR,,0.00,0.0,WeatherDisplay:10.37,2013-05-04 23:34:00,
2013-05-05 01:39:00,52.2,49.0,30.06,NNW,338,0.0,0.0,89,0.00,CLR,,0.00,0.0,WeatherDisplay:10.37,2013-05-04 23:39:00,
2013-05-05 01:44:00,52.2,49.0,30.06,WNW,292,0.0,0.0,89,0.00,CLR,,0.00,0.0,WeatherDisplay:10.37,2013-05-04 23:44:00,
2013-05-05 01:49:00,52.2,49.0,30.06,NNE,22,0.0,0.0,89,0.00,CLR,,0.00,0.0,WeatherDisplay:10.37,2013-05-04 23:49:00,
2013-05-05 01:54:00,52.0,48.8,30.06,NE,45,0.0,0.0,89,0.00,CLR,,0.00,0.0,WeatherDisplay:10.37,2013-05-04 23:54:00,
2013-05-05 01:59:00,52.0,48.8,30.06,NNE,22,0.0,0.0,89,0.00,CLR,,0.00,0.0,WeatherDisplay:10.37,2013-05-04 23:59:00,
2013-05-05 02:04:00,52.0,48.8,30.06,West,270,0.0,0.0,89,0.00,CLR,,0.00,0.0,WeatherDisplay:10.37,2013-05-05 00:04:00,
2013-05-05 02:09:00,52.0,48.8,30.06,West,270,0.0,0.0,89,0.00,CLR,,0.00,0.0,WeatherDisplay:10.37,2013-05-05 00:09:00,
2013-05-05 02:14:00,51.8,48.7,30.06,NE,45,0.0,0.0,89,0.00,CLR,,0.00,0.0,WeatherDisplay:10.37,2013-05-05 00:14:00,
2013-05-05 02:19:00,51.8,48.7,30.09,NE,45,0.0,0.0,89,0.00,CLR,,0.00,0.0,WeatherDisplay:10.37,2013-05-05 00:19:00,
2013-05-05 02:24:00,51.8,48.7,30.09,NE,45,0.0,0.0,89,0.00,CLR,,0.00,0.0,WeatherDisplay:10.37,2013-05-05 00:24:00,
2013-05-05 02:29:00,51.6,48.8,30.09,ENE,68,0.0,0.0,90,0.00,CLR,,0.00,0.0,WeatherDisplay:10.37,2013-05-05 00:29:00,
2013-05-05 02:34:00,51.6,48.8,30.09,ENE,68,1.2,0.0,90,0.00,CLR,,0.00,0.0,WeatherDisplay:10.37,2013-05-05 00:34:00,
2013-05-05 02:39:00,51.6,48.8,30.09,ENE,68,0.0,0.0,90,0.00,CLR,,0.00,0.0,WeatherDisplay:10.37,2013-05-05 00:39:00,
2013-05-05 02:44:00,51.6,48.8,30.09,ENE,68,0.0,0.0,90,0.00,CLR,,0.00,0.0,WeatherDisplay:10.37,2013-05-05 00:44:00,
2013-05-05 02:49:00,51.4,48.6,30.09,ENE,68,0.0,0.0,90,0.00,CLR,,0.00,0.0,WeatherDisplay:10.37,2013-05-05 00:49:00,
2013-05-05 02:54:00,51.4,48.6,30.09,ENE,68,0.0,0.0,90,0.00,CLR,,0.00,0.0,WeatherDisplay:10.37,2013-05-05 00:54:00,
2013-05-05 02:59:00,51.3,48.4,30.09,ESE,112,1.2,1.2,90,0.00,CLR,,0.00,0.0,WeatherDisplay:10.37,2013-05-05 00:59:00,
2013-05-05 03:04:00,51.1,48.2,30.12,ENE,68,0.0,0.0,90,0.00,CLR,,0.00,0.0,WeatherDisplay:10.37,2013-05-05 01:04:00,
2013-05-05 03:09:00,51.1,48.2,30.12,ENE,68,0.0,0.0,90,0.00,CLR,,0.00,0.0,WeatherDisplay:10.37,2013-05-05 01:09:00,
2013-05-05 03:14:00,51.1,48.2,30.12,NNE,22,0.0,0.0,90,0.00,CLR,,0.00,0.0,WeatherDisplay:10.37,2013-05-05 01:14:00,
2013-05-05 03:19:00,50.9,48.1,30.12,NW,315,0.0,0.0,90,0.00,CLR,,0.00,0.0,WeatherDisplay:10.37,2013-05-05 01:19:00,
2013-05-05 03:24:00,50.9,48.4,30.12,NNE,22,2.3,2.3,91,0.00,CLR,,0.00,0.0,WeatherDisplay:10.37,2013-05-05 01:24:00,
2013-05-05 03:29:00,50.9,48.4,30.12,NNW,338,0.0,0.0,91,0.00,CLR,,0.00,0.0,WeatherDisplay:10.37,2013-05-05 01:29:00,
2013-05-05 03:34:00,50.9,48.4,30.09,NNW,338,2.6,2.6,91,0.00,CLR,,0.00,0.0,WeatherDisplay:10.37,2013-05-05 01:34:00,
2013-05-05 03:39:00,50.9,48.4,30.09,NW,315,2.9,2.9,91,0.00,CLR,,0.00,0.0,WeatherDisplay:10.37,2013-05-05 01:39:00,
2013-05-05 03:44:00,51.1,48.8,30.09,NNW,338,4.6,4.6,92,0.00,CLR,,0.00,0.0,WeatherDisplay:10.37,2013-05-05 01:44:00,
2013-05-05 03:49:00,51.6,49.7,30.09,NNW,338,4.6,4.6,93,0.00,CLR,,0.00,0.0,WeatherDisplay:10.37,2013-05-05 01:49:00,
2013-05-05 03:54:00,51.8,49.8,30.09,SSW,202,4.6,4.6,93,0.00,CLR,,0.00,0.0,WeatherDisplay:10.37,2013-05-05 01:54:00,
2013-05-05 03:59:00,52.2,50.2,30.09,NNW,338,3.5,3.5,93,0.00,CLR,,0.00,0.0,WeatherDisplay:10.37,2013-05-05 01:59:00,
2013-05-05 04:04:00,52.7,50.7,30.12,NNW,338,4.6,4.6,93,0.00,CLR,,0.00,0.0,WeatherDisplay:10.37,2013-05-05 02:04:00,
2013-05-05 04:09:00,52.9,50.6,30.12,NNW,338,3.6,3.6,92,0.00,CLR,,0.00,0.0,WeatherDisplay:10.37,2013-05-05 02:09:00,
2013-05-05 04:14:00,53.1,50.5,30.12,WNW,292,3.5,3.5,91,0.00,CLR,,0.00,0.0,WeatherDisplay:10.37,2013-05-05 02:14:00,
2013-05-05 04:19:00,53.1,50.2,30.12,NNW,338,3.5,3.5,90,0.00,CLR,,0.00,0.0,WeatherDisplay:10.37,2013-05-05 02:19:00,
2013-05-05 04:24:00,53.2,50.4,30.12,NNE,22,3.3,3.3,90,0.00,CLR,,0.00,0.0,WeatherDisplay:10.37,2013-05-05 02:24:00,
2013-05-05 04:29:00,53.1,49.9,30.12,North,0,3.1,3.1,89,0.00,CLR,,0.00,0.0,WeatherDisplay:10.37,2013-05-05 02:29:00,
2013-05-05 04:34:00,53.1,49.9,30.12,North,0,3.5,3.5,89,0.00,CLR,,0.00,0.0,WeatherDisplay:10.37,2013-05-05 02:34:00,
2013-05-05 04:39:00,53.1,49.9,30.12,NNE,22,2.3,2.3,89,0.00,CLR,,0.00,0.0,WeatherDisplay:10.37,2013-05-05 02:39:00,
2013-05-05 04:44:00,53.1,50.2,30.12,North,0,4.6,4.6,90,0.00,CLR,,0.00,0.0,WeatherDisplay:10.37,2013-05-05 02:44:00,
2013-05-05 04:49:00,53.1,50.2,30.12,NNW,338,4.0,4.0,90,0.00,CLR,,0.00,0.0,WeatherDisplay:10.37,2013-05-05 02:49:00,
2013-05-05 04:54:00,53.1,50.2,30.12,ENE,68,2.3,2.3,90,0.00,CLR,,0.00,0.0,WeatherDisplay:10.37,2013-05-05 02:54:00,
2013-05-05 04:59:00,53.2,50.7,30.12,NW,315,2.3,2.3,91,0.00,CLR,,0.00,0.0,WeatherDisplay:10.37,2013-05-05 02:59:00,
2013-05-05 05:04:00,53.1,50.2,30.12,NNW,338,3.5,3.5,90,0.00,OVC,,0.00,0.0,WeatherDisplay:10.37,2013-05-05 03:04:00,
2013-05-05 05:09:00,53.1,50.2,30.12,NNW,338,3.5,3.5,90,0.00,OVC,,0.00,0.0,WeatherDisplay:10.37,2013-05-05 03:09:00,
2013-05-05 05:14:00,53.1,50.2,30.12,North,0,2.3,2.3,90,0.00,OVC,,0.00,0.0,WeatherDisplay:10.37,2013-05-05 03:14:00,
2013-05-05 05:19:00,52.9,50.0,30.15,NNW,338,1.2,0.0,90,0.00,OVC,,0.00,0.0,WeatherDisplay:10.37,2013-05-05 03:19:00,
2013-05-05 05:24:00,52.9,50.0,30.15,NNE,22,2.3,2.3,90,0.00,OVC,,0.00,0.0,WeatherDisplay:10.37,2013-05-05 03:24:00,
2013-05-05 05:29:00,52.7,49.8,30.15,WNW,292,0.0,0.0,90,0.00,OVC,,0.00,0.0,WeatherDisplay:10.37,2013-05-05 03:29:00,
2013-05-05 05:34:00,52.7,49.8,30.09,NW,315,1.2,0.0,90,0.00,OVC,,0.00,0.0,WeatherDisplay:10.37,2013-05-05 03:34:00,
2013-05-05 05:39:00,52.5,49.7,30.09,North,0,3.5,3.5,90,0.00,OVC,,0.00,2.1,WeatherDisplay:10.37,2013-05-05 03:39:00,
2013-05-05 05:44:00,52.5,49.7,30.09,North,0,3.5,3.5,90,0.00,OVC,,0.00,4.5,WeatherDisplay:10.37,2013-05-05 03:44:00,
2013-05-05 05:49:00,52.3,49.8,30.09,NNW,338,0.0,0.0,91,0.00,OVC,,0.00,6.9,WeatherDisplay:10.37,2013-05-05 03:49:00,
2013-05-05 05:54:00,52.3,49.8,30.09,NNE,22,0.0,0.0,91,0.00,OVC,,0.00,9.4,WeatherDisplay:10.37,2013-05-05 03:54:00,
2013-05-05 05:59:00,52.3,49.8,30.09,NNE,22,0.0,0.0,91,0.00,OVC,,0.00,11.7,WeatherDisplay:10.37,2013-05-05 03:59:00,
2013-05-05 06:01:00,52.5,50.3,30.12,NNW,338,1.2,0.0,92,0.00,OVC,,0.00,12.9,WeatherDisplay:10.37,2013-05-05 04:01:00,
2013-05-05 06:06:00,52.5,50.3,30.12,NNW,338,0.0,0.0,92,0.00,OVC,,0.00,15.3,WeatherDisplay:10.37,2013-05-05 04:06:00,
2013-05-05 06:11:00,52.5,50.3,30.12,North,0,2.3,2.3,92,0.00,OVC,,0.00,17.8,WeatherDisplay:10.37,2013-05-05 04:11:00,
2013-05-05 09:55:00,52.5,50.3,30.12,NNW,338,2.4,0.0,92,0.00,OVC,,0.00,0.0,WeatherDisplay:10.37,2013-05-05 07:55:00,
2013-05-05 10:00:00,66.2,56.5,30.15,NNW,338,2.3,2.3,71,0.00,OVC,,0.00,141.1,WeatherDisplay:10.37,2013-05-05 08:00:00,
2013-05-05 10:08:00,66.4,56.3,30.15,NNE,22,2.3,2.3,70,0.00,OVC,,0.00,144.7,WeatherDisplay:10.37,2013-05-05 08:08:00,
2013-05-05 10:13:00,66.6,55.7,30.15,ESE,112,4.6,4.6,68,0.00,OVC,,0.00,146.8,WeatherDisplay:10.37,2013-05-05 08:13:00,
2013-05-05 10:18:00,66.7,55.0,30.15,NNE,22,3.5,3.5,66,0.00,OVC,,0.00,149.0,WeatherDisplay:10.37,2013-05-05 08:18:00,
2013-05-05 10:24:00,66.9,56.0,30.15,ESE,112,4.0,4.0,68,0.00,OVC,,0.00,151.5,WeatherDisplay:10.37,2013-05-05 08:24:00,
2013-05-05 10:29:00,67.1,55.4,30.15,WSW,248,2.3,2.3,66,0.00,OVC,,0.00,153.4,WeatherDisplay:10.37,2013-05-05 08:29:00,
2013-05-05 10:34:00,67.5,56.1,30.18,WNW,292,3.5,3.5,67,0.00,OVC,,0.00,155.4,WeatherDisplay:10.37,2013-05-05 08:34:00,
2013-05-05 10:39:00,67.8,56.9,30.18,ESE,112,3.5,3.5,68,0.00,OVC,,0.00,157.4,WeatherDisplay:10.37,2013-05-05 08:39:00,
2013-05-05 10:44:00,68.0,56.6,30.18,NNW,338,5.8,5.8,67,0.00,OVC,,0.00,159.2,WeatherDisplay:10.37,2013-05-05 08:44:00,
2013-05-05 10:49:00,68.2,56.4,30.18,ESE,112,2.4,2.4,66,0.00,OVC,,0.00,161.0,WeatherDisplay:10.37,2013-05-05 08:49:00,
2013-05-05 10:54:00,68.2,56.0,30.18,WSW,248,3.5,3.5,65,0.00,OVC,,0.00,162.7,WeatherDisplay:10.37,2013-05-05 08:54:00,
2013-05-05 10:59:00,68.4,55.7,30.18,SSW,202,0.0,0.0,64,0.00,OVC,,0.00,164.5,WeatherDisplay:10.37,2013-05-05 08:59:00,
2013-05-05 11:04:00,68.5,56.3,30.18,SSE,158,5.8,5.8,65,0.00,OVC,,0.00,166.2,WeatherDisplay:10.37,2013-05-05 09:04:00,
2013-05-05 11:09:00,68.7,56.5,30.18,SSW,202,4.6,4.6,65,0.00,OVC,,0.00,167.6,WeatherDisplay:10.37,2013-05-05 09:09:00,
2013-05-05 11:14:00,69.1,55.5,30.18,NNW,338,0.0,0.0,62,0.00,OVC,,0.00,169.1,WeatherDisplay:10.37,2013-05-05 09:14:00,
2013-05-05 11:19:00,69.4,55.9,30.21,ESE,112,4.6,4.6,62,0.00,OVC,,0.00,170.6,WeatherDisplay:10.37,2013-05-05 09:19:00,
2013-05-05 11:24:00,69.4,54.9,30.21,North,0,3.6,3.6,60,0.00,OVC,,0.00,171.9,WeatherDisplay:10.37,2013-05-05 09:24:00,
2013-05-05 11:29:00,69.4,54.5,30.21,WNW,292,2.4,2.4,59,0.00,OVC,,0.00,173.3,WeatherDisplay:10.37,2013-05-05 09:29:00,
2013-05-05 11:34:00,69.6,54.7,30.21,SSW,202,3.5,3.5,59,0.00,OVC,,0.00,174.6,WeatherDisplay:10.37,2013-05-05 09:34:00,
2013-05-05 11:39:00,69.8,53.4,30.21,NNW,338,3.5,3.5,56,0.00,OVC,,0.00,175.7,WeatherDisplay:10.37,2013-05-05 09:39:00,
2013-05-05 11:44:00,70.3,55.3,30.21,NNW,338,4.6,4.6,59,0.00,OVC,,0.00,176.9,WeatherDisplay:10.37,2013-05-05 09:44:00,
2013-05-05 11:49:00,70.5,52.6,30.18,NNW,338,6.9,6.9,53,0.00,OVC,,0.00,177.9,WeatherDisplay:10.37,2013-05-05 09:49:00,
2013-05-05 11:54:00,70.5,53.6,30.18,SSW,202,2.3,2.3,55,0.00,OVC,,0.00,178.9,WeatherDisplay:10.37,2013-05-05 09:54:00,
2013-05-05 11:59:00,70.7,54.2,30.18,WNW,292,6.0,6.0,56,0.00,OVC,,0.00,179.7,WeatherDisplay:10.37,2013-05-05 09:59:00,
2013-05-05 12:04:00,70.7,55.7,30.18,WNW,292,4.6,4.6,59,0.00,OVC,,0.00,180.5,WeatherDisplay:10.37,2013-05-05 10:04:00,
2013-05-05 12:09:00,70.7,52.7,30.18,WNW,292,5.8,5.8,53,0.00,OVC,,0.00,181.3,WeatherDisplay:10.37,2013-05-05 10:09:00,
2013-05-05 12:14:00,70.9,55.4,30.18,South,180,4.6,4.6,58,0.00,OVC,,0.00,182.0,WeatherDisplay:10.37,2013-05-05 10:14:00,
2013-05-05 12:19:00,70.9,54.9,30.18,South,180,2.4,2.4,57,0.00,OVC,,0.00,182.7,WeatherDisplay:10.37,2013-05-05 10:19:00,
2013-05-05 12:24:00,71.1,55.1,30.18,WNW,292,4.6,4.6,57,0.00,OVC,,0.00,183.2,WeatherDisplay:10.37,2013-05-05 10:24:00,
2013-05-05 12:29:00,71.2,53.7,30.18,SSW,202,4.6,4.6,54,0.00,OVC,,0.00,183.6,WeatherDisplay:10.37,2013-05-05 10:29:00,
2013-05-05 12:34:00,71.4,54.9,30.15,WNW,292,2.3,2.3,56,0.00,OVC,,0.00,184.0,WeatherDisplay:10.37,2013-05-05 10:34:00,
2013-05-05 12:39:00,71.8,54.2,30.15,North,0,5.8,5.8,54,0.00,OVC,,0.00,184.3,WeatherDisplay:10.37,2013-05-05 10:39:00,
2013-05-05 12:44:00,71.8,53.2,30.15,NNE,22,3.5,3.5,52,0.00,OVC,,0.00,184.5,WeatherDisplay:10.37,2013-05-05 10:44:00,
2013-05-05 12:49:00,71.8,51.6,30.15,NNE,22,3.5,3.5,49,0.00,OVC,,0.00,184.6,WeatherDisplay:10.37,2013-05-05 10:49:00,
2013-05-05 12:54:00,72.1,53.0,30.15,WNW,292,5.8,5.8,51,0.00,OVC,,0.00,184.8,WeatherDisplay:10.37,2013-05-05 10:54:00,
2013-05-05 12:59:00,72.5,53.9,30.15,NNE,22,2.6,2.6,52,0.00,OVC,,0.00,184.8,WeatherDisplay:10.37,2013-05-05 10:59:00,
2013-05-05 13:04:00,72.7,53.5,30.18,NNE,22,4.6,4.6,51,0.00,OVC,,0.00,184.6,WeatherDisplay:10.37,2013-05-05 11:04:00,
2013-05-05 13:09:00,72.9,52.6,30.18,NNE,22,4.6,4.6,49,0.00,OVC,,0.00,184.6,WeatherDisplay:10.37,2013-05-05 11:09:00,
2013-05-05 13:14:00,73.2,52.9,30.18,NNW,338,5.8,5.8,49,0.00,OVC,,0.00,184.3,WeatherDisplay:10.37,2013-05-05 11:14:00,
2013-05-05 13:19:00,73.0,51.0,30.18,WNW,292,0.9,0.0,46,0.00,OVC,,0.00,184.0,WeatherDisplay:10.37,2013-05-05 11:19:00,
2013-05-05 13:24:00,72.9,51.4,30.18,NNE,22,4.6,4.6,47,0.00,OVC,,0.00,183.6,WeatherDisplay:10.37,2013-05-05 11:24:00,
2013-05-05 13:29:00,73.0,52.7,30.18,West,270,5.8,5.8,49,0.00,OVC,,0.00,183.3,WeatherDisplay:10.37,2013-05-05 11:29:00,
2013-05-05 13:34:00,73.2,52.3,30.15,NW,315,4.6,4.6,48,0.00,OVC,,0.00,182.7,WeatherDisplay:10.37,2013-05-05 11:34:00,
2013-05-05 13:39:00,73.2,52.3,30.15,NNE,22,5.8,5.8,48,0.00,OVC,,0.00,182.2,WeatherDisplay:10.37,2013-05-05 11:39:00,
2013-05-05 13:44:00,73.4,51.9,30.15,NNE,22,8.1,8.1,47,0.00,OVC,,0.00,181.5,WeatherDisplay:10.37,2013-05-05 11:44:00,
2013-05-05 13:49:00,73.4,52.5,30.15,NNW,338,4.3,4.3,48,0.00,OVC,,0.00,180.7,WeatherDisplay:10.37,2013-05-05 11:49:00,
2013-05-05 13:54:00,73.4,53.1,30.15,NNE,22,4.6,4.6,49,0.00,OVC,,0.00,179.8,WeatherDisplay:10.37,2013-05-05 11:54:00,
2013-05-05 13:59:00,73.6,53.2,30.15,NNW,338,4.6,4.6,49,0.00,OVC,,0.00,179.0,WeatherDisplay:10.37,2013-05-05 11:59:00,
2013-05-05 14:04:00,74.1,52.6,30.15,SSE,158,3.5,3.5,47,0.00,OVC,,0.00,178.2,WeatherDisplay:10.37,2013-05-05 12:04:00,
2013-05-05 14:09:00,74.5,53.5,30.15,North,0,5.4,5.4,48,0.00,OVC,,0.00,177.0,WeatherDisplay:10.37,2013-05-05 12:09:00,
2013-05-05 14:14:00,74.8,52.7,30.15,SE,135,4.6,4.6,46,0.00,OVC,,0.00,176.1,WeatherDisplay:10.37,2013-05-05 12:14:00,
2013-05-05 14:19:00,74.7,53.7,30.12,NNW,338,4.6,4.6,48,0.00,OVC,,0.00,174.9,WeatherDisplay:10.37,2013-05-05 12:19:00,
2013-05-05 14:24:00,74.7,52.5,30.12,NNW,338,5.8,5.8,46,0.00,OVC,,0.00,173.6,WeatherDisplay:10.37,2013-05-05 12:24:00,
2013-05-05 14:29:00,74.8,53.3,30.12,WNW,292,3.5,3.6,47,0.00,OVC,,0.00,172.3,WeatherDisplay:10.37,2013-05-05 12:29:00,
2013-05-05 14:34:00,75.0,53.4,30.12,WNW,292,4.6,4.6,47,0.00,OVC,,0.00,170.9,WeatherDisplay:10.37,2013-05-05 12:34:00,
2013-05-05 14:39:00,75.6,51.5,30.12,NNW,338,8.5,8.5,43,0.00,OVC,,0.00,169.6,WeatherDisplay:10.37,2013-05-05 12:39:00,
2013-05-05 14:44:00,75.9,53.0,30.12,NNW,338,3.8,4.5,45,0.00,OVC,,0.00,168.1,WeatherDisplay:10.37,2013-05-05 12:44:00,
2013-05-05 14:49:00,76.5,53.5,30.12,WNW,292,8.1,8.1,45,0.00,OVC,,0.00,166.5,WeatherDisplay:10.37,2013-05-05 12:49:00,
2013-05-05 14:54:00,76.8,54.5,30.12,NNE,22,5.8,5.8,46,0.00,OVC,,0.00,164.8,WeatherDisplay:10.37,2013-05-05 12:54:00,
2013-05-05 14:59:00,77.4,53.7,30.12,WNW,292,5.8,5.8,44,0.00,OVC,,0.00,163.2,WeatherDisplay:10.37,2013-05-05 12:59:00,
2013-05-05 15:04:00,77.5,52.0,30.09,WNW,292,3.5,3.5,41,0.00,OVC,,0.00,161.5,WeatherDisplay:10.37,2013-05-05 13:04:00,
2013-05-05 15:09:00,77.4,52.5,30.09,WNW,292,6.9,6.9,42,0.00,OVC,,0.00,159.7,WeatherDisplay:10.37,2013-05-05 13:09:00,
2013-05-05 15:14:00,76.8,52.6,30.09,NNW,338,6.0,6.0,43,0.00,OVC,,0.00,157.9,WeatherDisplay:10.37,2013-05-05 13:14:00,
2013-05-05 15:19:00,76.3,52.1,30.12,NNW,338,5.8,5.8,43,0.00,OVC,,0.00,155.9,WeatherDisplay:10.37,2013-05-05 13:19:00,
2013-05-05 15:24:00,76.3,51.5,30.12,NW,315,8.1,8.1,42,0.00,OVC,,0.00,153.9,WeatherDisplay:10.37,2013-05-05 13:24:00,
2013-05-05 15:29:00,76.5,52.9,30.12,WNW,292,4.0,4.0,44,0.00,OVC,,0.00,152.0,WeatherDisplay:10.37,2013-05-05 13:29:00,
2013-05-05 15:34:00,76.3,52.1,30.12,NNW,338,4.6,4.6,43,0.00,OVC,,0.00,150.0,WeatherDisplay:10.37,2013-05-05 13:34:00,
2013-05-05 15:39:00,75.6,52.1,30.12,NW,315,5.8,5.8,44,0.00,OVC,,0.00,147.8,WeatherDisplay:10.37,2013-05-05 13:39:00,
2013-05-05 15:44:00,75.4,51.9,30.12,WSW,248,4.6,4.6,44,0.00,OVC,,0.00,145.7,WeatherDisplay:10.37,2013-05-05 13:44:00,
2013-05-05 15:49:00,75.2,51.8,30.12,NW,315,2.3,2.4,44,0.00,OVC,,0.00,143.4,WeatherDisplay:10.37,2013-05-05 13:49:00,
2013-05-05 15:54:00,75.7,52.9,30.12,NNW,338,4.6,4.6,45,0.00,OVC,,0.00,141.2,WeatherDisplay:10.37,2013-05-05 13:54:00,
2013-05-05 15:59:00,76.3,52.1,30.12,NNW,338,5.8,5.8,43,0.00,OVC,,0.00,138.9,WeatherDisplay:10.37,2013-05-05 13:59:00,
2013-05-05 16:04:00,76.5,52.9,30.12,NNE,22,6.0,6.0,44,0.00,OVC,,0.00,136.6,WeatherDisplay:10.37,2013-05-05 14:04:00,
2013-05-05 16:09:00,76.1,51.3,30.12,NNW,338,5.8,5.8,42,0.00,OVC,,0.00,134.1,WeatherDisplay:10.37,2013-05-05 14:09:00,
2013-05-05 16:14:00,75.9,51.8,30.12,WNW,292,5.8,5.8,43,0.00,OVC,,0.00,131.8,WeatherDisplay:10.37,2013-05-05 14:14:00,
2013-05-05 16:19:00,75.0,51.0,30.12,NW,315,6.2,6.2,43,0.00,OVC,,0.00,129.4,WeatherDisplay:10.37,2013-05-05 14:19:00,
2013-05-05 16:24:00,74.5,49.9,30.12,NNW,338,4.9,4.9,42,0.00,OVC,,0.00,126.9,WeatherDisplay:10.37,2013-05-05 14:24:00,
2013-05-05 16:29:00,74.3,51.0,30.12,ENE,68,4.9,4.9,44,0.00,OVC,,0.00,124.2,WeatherDisplay:10.37,2013-05-05 14:29:00,
2013-05-05 16:34:00,73.9,50.0,30.09,North,0,5.8,5.8,43,0.00,OVC,,0.00,121.8,WeatherDisplay:10.37,2013-05-05 14:34:00,
2013-05-05 16:39:00,73.9,51.3,30.09,West,270,3.5,3.5,45,0.00,OVC,,0.00,119.1,WeatherDisplay:10.37,2013-05-05 14:39:00,
2013-05-05 16:44:00,73.6,49.1,30.09,WNW,292,4.6,4.6,42,0.00,OVC,,0.00,116.5,WeatherDisplay:10.37,2013-05-05 14:44:00,
2013-05-05 16:49:00,73.8,50.5,30.15,WNW,292,3.8,3.8,44,0.00,OVC,,0.00,113.8,WeatherDisplay:10.37,2013-05-05 14:49:00,
2013-05-05 16:54:00,74.1,52.0,30.15,WNW,292,3.5,3.5,46,0.00,OVC,,0.00,111.2,WeatherDisplay:10.37,2013-05-05 14:54:00,
2013-05-05 16:59:00,74.7,51.9,30.15,WNW,292,4.6,4.6,45,0.00,OVC,,0.00,108.6,WeatherDisplay:10.37,2013-05-05 14:59:00,
2013-05-05 17:04:00,75.4,52.6,30.15,WSW,248,2.0,2.0,45,0.00,OVC,,0.00,105.9,WeatherDisplay:10.37,2013-05-05 15:04:00,
2013-05-05 17:09:00,75.9,52.4,30.15,NNW,338,5.8,5.8,44,0.00,OVC,,0.00,103.1,WeatherDisplay:10.37,2013-05-05 15:09:00,
2013-05-05 17:14:00,76.1,53.2,30.15,NW,315,5.8,5.8,45,0.00,OVC,,0.00,100.3,WeatherDisplay:10.37,2013-05-05 15:14:00,
2013-05-05 17:19:00,75.9,51.8,30.15,WNW,292,3.5,3.5,43,0.00,OVC,,0.00,97.7,WeatherDisplay:10.37,2013-05-05 15:19:00,
2013-05-05 17:24:00,75.9,53.0,30.15,West,270,2.3,2.4,45,0.00,OVC,,0.00,94.9,WeatherDisplay:10.37,2013-05-05 15:24:00,
2013-05-05 17:29:00,75.6,51.5,30.15,WNW,292,6.0,6.0,43,0.00,OVC,,0.00,92.1,WeatherDisplay:10.37,2013-05-05 15:29:00,
2013-05-05 17:34:00,75.0,51.6,30.12,NNW,338,5.8,5.8,44,0.00,OVC,,0.00,89.3,WeatherDisplay:10.37,2013-05-05 15:34:00,
2013-05-05 17:39:00,74.7,51.9,30.12,NNW,338,2.3,2.4,45,0.00,OVC,,0.00,86.5,WeatherDisplay:10.37,2013-05-05 15:39:00,
2013-05-05 17:44:00,74.5,51.7,30.12,NNW,338,5.8,5.8,45,0.00,OVC,,0.00,83.7,WeatherDisplay:10.37,2013-05-05 15:44:00,
2013-05-05 17:49:00,74.1,51.4,30.12,NNE,22,5.8,5.8,45,0.00,OVC,,0.00,80.8,WeatherDisplay:10.37,2013-05-05 15:49:00,
2013-05-05 17:54:00,74.1,51.4,30.12,NNE,22,6.9,6.9,45,0.00,OVC,,0.00,77.9,WeatherDisplay:10.37,2013-05-05 15:54:00,
2013-05-05 17:59:00,74.1,52.0,30.12,SE,135,9.2,9.2,46,0.00,OVC,,0.00,75.1,WeatherDisplay:10.37,2013-05-05 15:59:00,
2013-05-05 18:04:00,73.8,51.7,30.12,ESE,112,6.0,6.0,46,0.00,OVC,,0.00,72.3,WeatherDisplay:10.37,2013-05-05 16:04:00,
2013-05-05 18:09:00,73.4,51.4,30.12,SSW,202,7.4,7.4,46,0.00,OVC,,0.00,69.5,WeatherDisplay:10.37,2013-05-05 16:09:00,
2013-05-05 18:14:00,73.0,51.6,30.12,NNW,338,6.9,6.9,47,0.00,OVC,,0.00,66.7,WeatherDisplay:10.37,2013-05-05 16:14:00,
2013-05-05 18:19:00,72.9,51.4,30.12,NE,45,5.8,5.8,47,0.00,OVC,,0.00,63.9,WeatherDisplay:10.37,2013-05-05 16:19:00,
2013-05-05 18:24:00,72.5,51.1,30.12,South,180,5.8,5.8,47,0.00,OVC,,0.00,61.0,WeatherDisplay:10.37,2013-05-05 16:24:00,
2013-05-05 18:29:00,72.5,51.1,30.12,NNW,338,2.3,2.3,47,0.00,OVC,,0.00,58.2,WeatherDisplay:10.37,2013-05-05 16:29:00,
2013-05-05 18:34:00,72.3,51.5,30.12,WNW,292,2.3,2.3,48,0.00,OVC,,0.00,55.3,WeatherDisplay:10.37,2013-05-05 16:34:00,
2013-05-05 18:39:00,72.1,51.9,30.12,WNW,292,2.4,2.4,49,0.00,OVC,,0.00,52.6,WeatherDisplay:10.37,2013-05-05 16:39:00,
2013-05-05 18:44:00,72.0,51.8,30.12,WNW,292,2.3,2.3,49,0.00,OVC,,0.00,49.8,WeatherDisplay:10.37,2013-05-05 16:44:00,
2013-05-05 18:49:00,71.6,52.0,30.15,NNW,338,2.3,2.3,50,0.00,OVC,,0.00,47.0,WeatherDisplay:10.37,2013-05-05 16:49:00,
2013-05-05 18:54:00,71.4,51.3,30.15,West,270,3.5,3.5,49,0.00,OVC,,0.00,44.2,WeatherDisplay:10.37,2013-05-05 16:54:00,
2013-05-05 18:59:00,71.1,50.4,30.15,NW,315,2.3,2.3,48,0.00,OVC,,0.00,41.4,WeatherDisplay:10.37,2013-05-05 16:59:00,
2013-05-05 19:04:00,70.9,50.2,30.12,NW,315,0.0,0.0,48,0.00,OVC,,0.00,38.8,WeatherDisplay:10.37,2013-05-05 17:04:00,
2013-05-05 19:09:00,70.7,50.0,30.12,NNW,338,1.2,0.0,48,0.00,OVC,,0.00,36.1,WeatherDisplay:10.37,2013-05-05 17:09:00,
2013-05-05 19:14:00,70.5,49.9,30.12,NNE,22,3.5,3.5,48,0.00,OVC,,0.00,33.3,WeatherDisplay:10.37,2013-05-05 17:14:00,
2013-05-05 19:19:00,70.5,49.9,30.15,WNW,292,4.6,4.6,48,0.00,OVC,,0.00,30.7,WeatherDisplay:10.37,2013-05-05 17:19:00,
2013-05-05 19:24:00,70.2,50.1,30.15,NNW,338,2.3,2.3,49,0.00,OVC,,0.00,28.1,WeatherDisplay:10.37,2013-05-05 17:24:00,
2013-05-05 19:29:00,70.0,49.9,30.15,WNW,292,3.5,3.5,49,0.00,OVC,,0.00,25.4,WeatherDisplay:10.37,2013-05-05 17:29:00,
2013-05-05 19:34:00,69.8,50.3,30.12,WNW,292,4.6,4.6,50,0.00,OVC,,0.00,22.9,WeatherDisplay:10.37,2013-05-05 17:34:00,
2013-05-05 19:39:00,69.6,50.7,30.12,NW,315,2.3,2.3,51,0.00,OVC,,0.00,20.3,WeatherDisplay:10.37,2013-05-05 17:39:00,
2013-05-05 19:44:00,69.4,50.5,30.12,NNE,22,4.6,4.6,51,0.00,OVC,,0.00,17.7,WeatherDisplay:10.37,2013-05-05 17:44:00,
2013-05-05 19:49:00,69.3,50.9,30.12,NNW,338,4.6,4.6,52,0.00,OVC,,0.00,15.2,WeatherDisplay:10.37,2013-05-05 17:49:00,
2013-05-05 19:54:00,69.1,50.7,30.12,NNE,22,5.8,5.8,52,0.00,OVC,,0.00,12.7,WeatherDisplay:10.37,2013-05-05 17:54:00,
2013-05-05 19:59:00,68.9,51.1,30.12,North,0,4.6,4.6,53,0.00,OVC,,0.00,10.2,WeatherDisplay:10.37,2013-05-05 17:59:00,
2013-05-05 20:04:00,68.7,50.9,30.12,NNW,338,4.6,4.6,53,0.00,OVC,,0.00,7.9,WeatherDisplay:10.37,2013-05-05 18:04:00,
2013-05-05 20:09:00,68.5,51.2,30.12,NW,315,3.5,3.5,54,0.00,OVC,,0.00,5.4,WeatherDisplay:10.37,2013-05-05 18:09:00,
2013-05-05 20:14:00,68.4,51.6,30.12,NNE,22,2.3,2.3,55,0.00,OVC,,0.00,3.1,WeatherDisplay:10.37,2013-05-05 18:14:00,
2013-05-05 20:19:00,68.2,51.4,30.12,NNW,338,4.3,4.3,55,0.00,OVC,,0.00,0.7,WeatherDisplay:10.37,2013-05-05 18:19:00,
2013-05-05 20:24:00,68.0,51.7,30.12,NNE,22,2.4,2.4,56,0.00,OVC,,0.00,0.7,WeatherDisplay:10.37,2013-05-05 18:24:00,
2013-05-05 20:29:00,67.8,52.0,30.12,WNW,292,3.5,3.5,57,0.00,OVC,,0.00,0.7,WeatherDisplay:10.37,2013-05-05 18:29:00,
2013-05-05 20:34:00,67.6,51.9,30.15,NW,315,0.0,0.0,57,0.00,CLR,,0.00,0.0,WeatherDisplay:10.37,2013-05-05 18:34:00,
2013-05-05 20:39:00,67.5,51.7,30.15,NNW,338,2.3,2.3,57,0.00,CLR,,0.00,0.0,WeatherDisplay:10.37,2013-05-05 18:39:00,
2013-05-05 20:44:00,67.3,52.0,30.15,NNW,338,3.5,3.5,58,0.00,CLR,,0.00,0.0,WeatherDisplay:10.37,2013-05-05 18:44:00,
2013-05-05 20:49:00,67.1,52.3,30.15,WNW,292,2.3,2.3,59,0.00,CLR,,0.00,0.0,WeatherDisplay:10.37,2013-05-05 18:49:00,
2013-05-05 20:54:00,66.9,52.6,30.15,NNW,338,2.3,2.3,60,0.00,CLR,,0.00,0.0,WeatherDisplay:10.37,2013-05-05 18:54:00,
2013-05-05 20:59:00,66.7,52.4,30.15,NNW,338,3.8,3.8,60,0.00,CLR,,0.00,0.0,WeatherDisplay:10.37,2013-05-05 18:59:00,
2013-05-05 21:04:00,66.6,52.7,30.15,NNE,22,3.5,3.5,61,0.00,CLR,,0.00,0.0,WeatherDisplay:10.37,2013-05-05 19:04:00,
2013-05-05 21:09:00,66.2,52.3,30.15,North,0,4.6,4.6,61,0.00,CLR,,0.00,0.0,WeatherDisplay:10.37,2013-05-05 19:09:00,
2013-05-05 21:14:00,66.0,52.6,30.15,NNE,22,4.6,4.6,62,0.00,CLR,,0.00,0.0,WeatherDisplay:10.37,2013-05-05 19:14:00,
2013-05-05 21:19:00,66.0,52.6,30.15,NNE,22,3.5,3.5,62,0.00,CLR,,0.00,0.0,WeatherDisplay:10.37,2013-05-05 19:19:00,
2013-05-05 21:24:00,65.8,52.5,30.15,ENE,68,3.5,3.5,62,0.00,CLR,,0.00,0.0,WeatherDisplay:10.37,2013-05-05 19:24:00,
2013-05-05 21:29:00,65.8,53.3,30.15,NNW,338,2.4,0.0,64,0.00,CLR,,0.00,0.0,WeatherDisplay:10.37,2013-05-05 19:29:00,
2013-05-05 21:34:00,65.5,52.5,30.15,NNE,22,2.3,2.3,63,0.00,CLR,,0.00,0.0,WeatherDisplay:10.37,2013-05-05 19:34:00,
2013-05-05 21:39:00,65.5,53.0,30.15,NNW,338,3.5,3.5,64,0.00,CLR,,0.00,0.0,WeatherDisplay:10.37,2013-05-05 19:39:00,
2013-05-05 21:44:00,65.3,52.8,30.15,NNE,22,3.5,3.5,64,0.00,CLR,,0.00,0.0,WeatherDisplay:10.37,2013-05-05 19:44:00,
2013-05-05 21:49:00,65.1,53.1,30.18,ENE,68,3.5,3.5,65,0.00,CLR,,0.00,0.0,WeatherDisplay:10.37,2013-05-05 19:49:00,
2013-05-05 21:54:00,65.1,53.1,30.18,NNW,338,2.9,2.9,65,0.00,CLR,,0.00,0.0,WeatherDisplay:10.37,2013-05-05 19:54:00,
2013-05-05 21:59:00,64.9,52.9,30.18,North,0,2.3,2.4,65,0.00,CLR,,0.00,0.0,WeatherDisplay:10.37,2013-05-05 19:59:00,
2013-05-05 22:04:00,64.9,53.3,30.18,NW,315,3.5,3.5,66,0.00,CLR,,0.00,0.0,WeatherDisplay:10.37,2013-05-05 20:04:00,
2013-05-05 22:09:00,64.8,53.1,30.18,NNE,22,2.3,2.3,66,0.00,CLR,,0.00,0.0,WeatherDisplay:10.37,2013-05-05 20:09:00,
2013-05-05 22:14:00,64.8,53.1,30.18,North,0,2.4,0.0,66,0.00,CLR,,0.00,0.0,WeatherDisplay:10.37,2013-05-05 20:14:00,
2013-05-05 22:19:00,64.8,53.1,30.18,NNW,338,2.3,2.3,66,0.00,CLR,,0.00,0.0,WeatherDisplay:10.37,2013-05-05 20:19:00,
2013-05-05 22:24:00,64.6,53.0,30.18,NNE,22,3.8,3.8,66,0.00,CLR,,0.00,0.0,WeatherDisplay:10.37,2013-05-05 20:24:00,
2013-05-05 22:29:00,64.6,53.0,30.18,NNW,338,3.3,3.3,66,0.00,CLR,,0.00,0.0,WeatherDisplay:10.37,2013-05-05 20:29:00,
2013-05-05 22:34:00,64.4,53.2,30.15,NNW,338,5.8,5.8,67,0.00,CLR,,0.00,0.0,WeatherDisplay:10.37,2013-05-05 20:34:00,
2013-05-05 22:39:00,64.4,53.2,30.15,NNW,338,3.8,3.8,67,0.00,CLR,,0.00,0.0,WeatherDisplay:10.37,2013-05-05 20:39:00,
2013-05-05 22:44:00,64.8,53.5,30.15,WNW,292,2.3,2.3,67,0.00,CLR,,0.00,0.0,WeatherDisplay:10.37,2013-05-05 20:44:00,
2013-05-05 22:49:00,64.8,53.5,30.18,North,0,2.3,2.3,67,0.00,CLR,,0.00,0.0,WeatherDisplay:10.37,2013-05-05 20:49:00,
2013-05-05 22:54:00,64.8,53.5,30.18,NNE,22,3.6,3.6,67,0.00,CLR,,0.00,0.0,WeatherDisplay:10.37,2013-05-05 20:54:00,
2013-05-05 22:59:00,64.8,53.1,30.18,NNE,22,3.8,3.8,66,0.00,CLR,,0.00,0.0,WeatherDisplay:10.37,2013-05-05 20:59:00,
2013-05-05 23:04:00,64.8,53.1,30.15,NNW,338,3.5,3.5,66,0.00,CLR,,0.00,0.0,WeatherDisplay:10.37,2013-05-05 21:04:00,
2013-05-05 23:09:00,64.8,53.5,30.15,NNE,22,6.2,6.2,67,0.00,CLR,,0.00,0.0,WeatherDisplay:10.37,2013-05-05 21:09:00,
2013-05-05 23:14:00,64.8,53.1,30.15,ENE,68,3.8,0.0,66,0.00,CLR,,0.00,0.0,WeatherDisplay:10.37,2013-05-05 21:14:00,
2013-05-05 23:19:00,64.8,53.1,30.15,SSW,202,1.2,0.0,66,0.00,CLR,,0.00,0.0,WeatherDisplay:10.37,2013-05-05 21:19:00,
2013-05-05 23:24:00,64.8,53.1,30.15,WSW,248,0.0,0.0,66,0.00,CLR,,0.00,0.0,WeatherDisplay:10.37,2013-05-05 21:24:00,
2013-05-05 23:29:00,64.8,53.1,30.15,SSW,202,1.2,0.0,66,0.00,CLR,,0.00,0.0,WeatherDisplay:10.37,2013-05-05 21:29:00,
2013-05-05 23:34:00,64.6,53.4,30.18,SSW,202,2.3,2.3,67,0.00,CLR,,0.00,0.0,WeatherDisplay:10.37,2013-05-05 21:34:00,
2013-05-05 23:39:00,64.6,53.4,30.18,SW,225,0.0,0.0,67,0.00,CLR,,0.00,0.0,WeatherDisplay:10.37,2013-05-05 21:39:00,
2013-05-05 23:44:00,64.4,53.2,30.18,ENE,68,0.0,0.0,67,0.00,CLR,,0.00,0.0,WeatherDisplay:10.37,2013-05-05 21:44:00,
2013-05-05 23:49:00,64.4,53.2,30.15,NNE,22,2.3,2.3,67,0.00,CLR,,0.00,0.0,WeatherDisplay:10.37,2013-05-05 21:49:00,
2013-05-05 23:54:00,64.4,53.2,30.15,North,0,3.5,3.5,67,0.00,CLR,,0.00,0.0,WeatherDisplay:10.37,2013-05-05 21:54:00,
2013-05-05 23:59:00,64.2,53.4,30.15,NNE,22,4.6,4.6,68,0.00,CLR,,0.00,0.0,WeatherDisplay:10.37,2013-05-05 21:59:00,